User: anonymous   Login
Location: Unspecified
(0.0000°N, 0.0000°E)
Time: 03:26:16
(UTC+02:00)
Language:

H-2A R/B - Orbit

View from above orbital plane
View from above orbital plane
View from above satellite
View from above satellite

Ground track
Ground track

The orbit data is extracted from the following two-line orbital elements,

1 26899U 01038B   15115.25420778  .00006634  00000-0  19548-2 0  9992
2 26899 028.4005 022.5611 7145443 030.8415 197.2042 02.45018512117159
Epoch (UTC): 25 April 2015 06:06:03
Eccentricity: 0.7145443
inclination: 28.4005°
perigee height: 256 km
apogee height: 33470 km
right ascension of ascending node: 22.5611°
argument of perigee: 30.8415°
revolutions per day: 2.45018512
mean anomaly at epoch: 197.2042°
orbit number at epoch: 11715

The dashed part of the orbit path shows where the satellite is in the earth's shadow,  

DLR